Vertical_Velocity
-4 -2 -0 -0 -2 -3 -2 0 -1 -4 -5 -3 -2 -2 -2 -4 -4 -4 -3 -3 -4 -5 -5 -5 -5 -5 -4 -3 -2 -1 -1 -1 -1 -1 -1 -2 -2 -3 -3 -3 -3 -3 -3 -4 -4 -4 -5 -5 -5 -5 -5 -4 -4 -4 -4 -3 -4 -4 -4 -1 1 1 -2 3 6 8 9 8 6 4 6 5 3 2 4 3 2 0 -1 1 2 3 5 5 7 8
-3 -2 -1 -0 -2 -4 -4 -0 -0 -3 -6 -4 -3 -2 -3 -4 -4 -4 -3 -2 -3 -3 -4 -4 -5 -5 -5 -4 -2 -1 -0 -1 -1 -1 -1 -2 -2 -3 -3 -4 -4 -4 -4 -4 -4 -4 -5 -5 -6 -5 -5 -5 -4 -4 -3 -3 -3 -3 -2 2 6 10 10 9 7 6 4 -0 -1 0 7 7 6 3 2 -1 -3 -5 -7 -5 -3 0 4 6 6 6
-2 -3 -2 -0 -2 -4 -5 -1 -1 -2 -4 -4 -3 -3 -3 -4 -4 -4 -3 -2 -2 -2 -3 -4 -5 -6 -6 -5 -3 -2 -1 -2 -2 -2 -2 -2 -3 -4 -4 -4 -4 -4 -4 -4 -4 -4 -5 -5 -5 -4 -4 -4 -4 -4 -3 -3 -3 -3 -3 1 6 10 10 6 2 -0 -4 -4 -4 -1 4 6 7 6 4 1 -1 -2 -2 -0 1 2 2 2 1 -1
-2 -4 -3 -1 -2 -3 -3 -2 -2 -2 -2 -3 -2 -2 -2 -3 -3 -3 -2 -3 -4 -4 -4 -5 -6 -8 -9 -8 -7 -5 -4 -4 -4 -4 -4 -4 -4 -5 -5 -5 -4 -4 -4 -3 -4 -4 -4 -4 -4 -4 -3 -4 -4 -3 -3 -3 -4 -4 -5 -3 1 3 2 0 -0 -0 0 2 2 1 -0 0 2 2 -1 -3 -3 -2 -0 3 4 3 -0 -1 -2 -3
-1 -3 -4 -3 -3 -3 -1 -1 -2 -2 -2 -2 -2 -1 -1 -2 -3 -3 -3 -4 -6 -7 -8 -8 -8 -8 -9 -10 -10 -8 -7 -6 -6 -5 -4 -4 -4 -4 -4 -4 -4 -3 -3 -3 -3 -3 -3 -3 -3 -3 -3 -3 -2 -2 -2 -3 -4 -4 -4 -1 1 3 4 2 2 4 9 8 5 4 5 4 2 -2 -8 -9 -9 -7 -5 -2 -0 -2 -5 -5 -4 -4
-1 -2 -3 -4 -4 -3 -1 -1 -1 -2 -2 -2 -2 -1 -2 -3 -4 -6 -7 -7 -8 -8 -8 -8 -7 -6 -6 -8 -8 -9 -9 -7 -6 -4 -3 -2 -2 -2 -2 -3 -3 -3 -3 -2 -2 -2 -2 -2 -2 -2 -2 -2 -2 -1 -2 -3 -3 -2 2 7 10 10 9 7 7 9 11 5 2 4 10 9 5 -1 -6 -8 -8 -7 -7 -6 -7 -8 -9 -7 -6 -6
-2 -2 -2 -3 -3 -3 -2 -1 -1 -1 -2 -3 -3 -3 -3 -4 -5 -6 -8 -8 -8 -7 -7 -6 -5 -4 -5 -6 -7 -9 -10 -10 -8 -6 -5 -5 -4 -3 -2 -2 -2 -2 -3 -2 -2 -2 -2 -2 -2 -2 -2 -1 -1 -1 -2 -2 -2 2 12 18 18 16 14 12 10 9 6 0 -1 1 6 3 -0 -2 -2 -4 -4 -3 -2 -5 -8 -10 -9 -7 -6 -3
-4 -3 -0 -2 -2 -3 -3 -2 -0 0 -1 -4 -5 -5 -5 -5 -5 -5 -5 -5 -5 -6 -7 -8 -8 -8 -8 -8 -9 -9 -11 -13 -14 -14 -11 -10 -10 -8 -6 -4 -3 -3 -3 -2 -2 -2 -1 -1 -1 -1 -1 -1 -1 -1 -1 -1 -1 1 7 11 12 11 8 5 3 1 -0 -1 -1 -0 -1 -4 -3 -0 1 1 2 2 2 -2 -6 -10 -10 -9 -7 -3
-5 -4 -1 -0 -1 -3 -4 -2 1 3 2 -2 -5 -6 -8 -8 -8 -7 -6 -4 -3 -3 -6 -11 -14 -14 -13 -11 -11 -10 -10 -9 -10 -11 -11 -10 -9 -8 -8 -7 -6 -4 -2 -1 -0 0 1 1 1 1 0 0 0 0 0 -1 -1 -2 -2 -0 1 2 -0 -1 -1 -1 -0 -0 -1 -2 -4 -4 -2 1 1 3 4 4 2 -1 -5 -8 -10 -12 -12 -10
-3 -3 -3 -0 -0 -1 -5 -4 0 4 3 -0 -3 -5 -7 -10 -11 -12 -12 -9 -5 -3 -5 -11 -15 -16 -15 -11 -9 -8 -8 -7 -4 -1 -1 -2 -2 -2 -3 -4 -4 -4 -2 0 2 3 4 4 4 3 2 2 2 2 2 1 -0 -2 -2 -3 -3 -3 -2 -1 -0 0 0 -1 -2 -3 -5 -5 -5 -4 -2 0 0 1 2 1 -2 -6 -9 -14 -16 -16
-3 -2 -3 -2 -1 -0 -2 -3 -1 2 2 -1 -4 -6 -7 -8 -10 -13 -17 -16 -12 -8 -7 -9 -10 -11 -11 -9 -6 -2 -2 -5 -5 -3 1 2 2 2 0 -1 -1 -1 -0 1 2 3 5 5 4 4 3 3 3 3 3 2 1 0 -1 -1 -2 -2 -2 -1 -0 0 0 -1 -2 -3 -5 -6 -6 -5 -2 -0 0 2 6 5 -0 -6 -11 -15 -17 -16
-3 -2 -2 -3 -2 -2 -1 -1 -0 0 -1 -5 -8 -9 -8 -5 -5 -8 -12 -15 -14 -12 -10 -8 -6 -4 -1 -3 -4 -3 -1 -3 -5 -6 -4 -1 1 1 -2 -5 -5 -4 -3 -3 -2 0 3 4 3 2 3 3 3 3 4 2 1 1 0 -0 -1 -1 -0 -0 0 1 1 -0 -2 -3 -5 -6 -7 -6 -1 2 3 5 7 4 -2 -8 -13 -16 -16 -13
-3 -3 -3 -4 -3 -2 -1 -0 -1 -2 -4 -6 -8 -9 -8 -5 -3 -3 -7 -11 -11 -10 -9 -10 -8 -4 4 7 4 -1 -6 -9 -10 -9 -7 -5 -2 -2 -5 -10 -11 -9 -6 -7 -7 -5 1 1 1 1 3 3 3 3 4 3 2 1 1 1 1 1 1 1 2 2 1 -1 -3 -5 -6 -6 -6 -4 1 4 6 7 6 3 -2 -7 -12 -14 -12 -9
-3 -2 -4 -5 -4 -1 1 0 -2 -5 -6 -4 -4 -6 -7 -6 -4 -4 -6 -9 -9 -7 -5 -8 -9 -7 1 8 10 6 -3 -12 -17 -17 -11 -5 -0 1 -3 -11 -13 -10 -4 -6 -8 -7 -1 0 -2 -3 1 3 4 3 3 2 2 2 2 2 2 2 2 3 3 3 2 -1 -1 0 2 -3 -6 -5 0 5 7 7 6 4 -0 -5 -9 -9 -6 -5
-2 -3 -5 -5 -3 -0 2 -1 -4 -7 -6 -4 -4 -4 -5 -5 -5 -5 -6 -9 -8 -6 -4 -6 -8 -7 -1 6 9 7 2 -7 -14 -18 -15 -7 2 8 4 -8 -13 -11 -2 -3 -6 -7 -1 1 -1 -4 -3 -0 1 2 1 -0 -0 0 1 1 1 2 2 3 4 3 0 -1 3 6 6 -2 -6 -4 3 8 9 7 4 2 -1 -4 -6 -3 -0 -1
-2 -4 -6 -5 -2 1 1 -2 -6 -7 -6 -4 -2 -2 -3 -4 -4 -5 -5 -7 -7 -6 -4 -8 -12 -14 -10 3 10 10 4 -4 -10 -14 -14 -12 -1 9 11 -4 -13 -13 -4 -1 -2 -4 -2 -1 -0 -1 -1 -0 0 1 1 -0 -1 -0 -0 -0 0 1 2 3 3 3 1 3 8 10 6 -4 -7 -4 3 7 7 5 2 -0 -2 -4 -6 -1 3 2
-3 -4 -5 -3 -1 -1 -2 -4 -5 -6 -4 -2 -1 -1 -1 -3 -4 -4 -4 -5 -5 -4 -2 -4 -9 -16 -21 -12 1 11 10 -2 -10 -14 -13 -13 -5 6 13 1 -9 -13 -7 -1 1 0 -1 -1 -1 -0 0 0 1 1 1 0 -0 -0 -1 -0 -0 0 1 2 3 3 0 2 4 4 -2 -6 -8 -6 -2 1 2 2 0 -2 -3 -5 -5 -0 3 3
-3 -3 -2 -2 -4 -5 -6 -5 -4 -2 -1 -1 -2 -2 -3 -3 -3 -3 -3 -2 -1 -2 -3 -3 -4 -8 -14 -18 -10 3 11 1 -8 -14 -15 -14 -7 2 11 3 -5 -9 -7 -2 1 2 1 -1 -1 -0 0 0 1 1 1 1 0 -0 -0 -1 -1 -0 1 2 3 2 1 0 -1 -3 -5 -6 -7 -6 -3 -1 1 2 2 -1 -5 -6 -5 -1 2 1
-2 -1 -1 -5 -7 -8 -7 -4 -1 0 1 -1 -2 -4 -4 -3 -1 0 -0 1 0 -1 -4 -6 -6 -6 -6 -11 -8 -1 7 1 -7 -13 -16 -16 -10 -1 9 2 -4 -8 -5 -1 1 2 0 -1 -1 1 2 2 2 2 2 1 1 0 -0 -1 -1 -0 0 1 2 2 1 1 -1 -3 -4 -5 -5 -4 -2 -1 -1 -2 -1 -3 -5 -6 -6 -4 -3 -4
-3 -4 -5 -6 -6 -7 -6 -1 2 3 2 -1 -3 -4 -5 -2 -0 1 1 1 -0 -2 -4 -6 -7 -7 -5 -8 -7 -3 4 -0 -6 -12 -15 -14 -9 -1 8 1 -6 -9 -6 -1 2 2 -1 -3 -2 -0 2 2 3 2 2 1 0 -0 -1 -2 -2 -1 -1 -0 0 1 1 1 0 -1 -3 -4 -3 -2 -0 1 -0 -2 -4 -4 -4 -5 -6 -8 -9 -11
-8 -9 -7 -3 -3 -4 -6 -1 3 4 3 -0 -2 -3 -4 -2 -2 -2 -3 -3 -4 -4 -4 -4 -5 -4 -2 -5 -5 -3 2 -0 -6 -12 -18 -17 -10 0 9 1 -6 -10 -8 -2 2 3 -0 -2 -2 -1 1 2 2 2 1 1 -0 -1 -2 -2 -3 -2 -2 0 1 2 2 2 2 0 -1 -2 -2 -1 0 1 1 0 -0 -1 -2 -4 -7 -11 -13 -14
-11 -10 -4 1 1 -2 -4 -1 1 4 3 2 -0 -2 -2 -3 -5 -6 -7 -6 -5 -5 -4 -2 -1 0 2 -0 -2 -1 3 1 -3 -10 -17 -22 -17 -5 11 4 -3 -8 -7 -2 0 1 1 -0 -0 1 2 3 3 3 2 1 -0 -1 -2 -2 -3 -2 -2 -1 -0 0 1 1 1 0 -0 0 0 0 0 1 0 -0 -0 -1 -2 -5 -8 -11 -14 -15
-7 -6 -1 2 2 -0 -2 -1 0 2 4 3 1 -1 -3 -4 -6 -7 -7 -5 -4 -4 -3 -2 -1 1 2 -0 -2 -1 3 4 0 -6 -12 -20 -19 -10 7 4 -2 -6 -4 -1 -0 -1 -1 2 3 4 4 4 4 4 3 1 0 -1 -1 -2 -2 -2 -2 -2 -1 -0 0 1 1 1 1 2 2 2 2 2 2 1 -0 -1 -3 -5 -8 -10 -12 -14
-3 -3 -1 0 1 1 -0 -0 0 2 3 2 -1 -3 -4 -5 -6 -6 -5 -4 -3 -3 -4 -5 -4 -3 -0 1 0 1 5 6 3 -3 -9 -16 -15 -9 3 2 -4 -8 -5 1 2 -0 -2 1 5 7 6 5 4 4 2 1 0 -0 -1 -1 -1 -2 -2 -2 -2 -1 -0 1 1 2 2 3 3 4 4 5 4 3 1 -2 -4 -6 -7 -8 -10 -13
-2 -2 -2 -0 1 1 0 1 1 1 0 -2 -4 -6 -6 -6 -6 -6 -5 -3 -2 -2 -4 -6 -7 -6 -3 -0 1 3 7 8 5 -1 -8 -15 -15 -9 4 3 -3 -8 -9 -1 3 2 -1 0 4 6 6 4 4 3 2 2 1 1 0 -0 -0 -1 -2 -3 -3 -2 -1 0 1 2 2 2 3 4 6 6 5 4 2 -1 -3 -4 -4 -7 -10 -12
-1 -1 -0 1 1 2 2 2 1 -1 -3 -4 -5 -5 -5 -5 -6 -5 -3 0 1 -1 -5 -7 -8 -7 -4 -2 -1 1 5 8 6 1 -5 -13 -16 -12 2 4 -1 -7 -11 -4 1 2 -1 -1 1 5 6 4 4 3 3 2 2 2 1 0 -0 -1 -2 -2 -2 -2 -1 0 1 1 1 2 3 5 8 7 6 4 1 -1 -2 -1 -2 -5 -8 -10
1 1 2 3 3 4 3 1 -1 -3 -3 -2 -1 -1 -2 -4 -5 -5 -3 2 2 -1 -6 -8 -9 -9 -7 -3 -1 1 5 7 5 0 -4 -9 -13 -12 -4 0 -1 -6 -10 -7 -1 3 2 -0 1 3 5 4 4 3 3 3 2 2 1 1 1 -0 -1 -2 -2 -1 -0 -0 -0 0 1 2 4 7 10 9 7 4 1 -0 -0 -0 -1 -4 -7 -9
1 2 3 3 3 2 0 -1 -1 -0 1 2 2 2 0 -2 -3 -4 -3 -0 -0 -2 -6 -6 -7 -8 -9 -6 -3 1 6 7 3 -2 -6 -8 -10 -10 -4 -2 -2 -4 -8 -10 -5 3 9 6 4 2 3 4 3 3 2 2 2 2 2 2 2 1 -0 -1 -1 -1 -1 -1 -1 -0 0 2 5 9 12 10 8 6 4 2 2 0 -1 -4 -6 -8
1 2 2 2 2 2 1 2 2 3 3 3 2 2 1 0 -1 -2 -3 -2 -2 -3 -5 -4 -4 -5 -8 -8 -6 -2 6 8 3 -4 -7 -9 -10 -8 -1 -2 -2 -3 -6 -14 -13 -4 11 15 12 5 0 1 2 2 1 2 2 2 2 3 3 3 1 0 -0 -1 -1 -1 -1 -1 0 2 6 10 13 11 8 6 6 4 3 2 -1 -4 -6 -8
1 2 2 2 2 3 3 3 3 3 3 2 1 1 1 1 -0 -2 -3 -3 -3 -3 -4 -3 -3 -4 -7 -10 -11 -9 -1 6 4 -2 -7 -9 -10 -7 -1 -1 -1 -1 -2 -13 -21 -21 -6 13 19 16 5 2 2 3 3 2 1 1 1 2 3 4 4 2 1 0 -0 -1 -1 -1 -0 2 6 9 12 10 8 5 4 4 4 2 -1 -4 -6 -8
1 2 2 2 2 3 3 2 2 2 2 1 1 1 2 1 -0 -2 -3 -2 -1 -1 -2 -3 -4 -4 -5 -7 -11 -12 -9 2 4 0 -4 -8 -9 -7 -1 -2 -2 -1 4 -3 -15 -26 -30 -11 9 21 16 8 5 4 4 2 1 -1 -1 -0 1 3 5 4 3 1 0 -1 -1 -1 -0 2 5 8 10 8 6 3 2 4 4 4 0 -4 -8 -11
1 1 1 2 2 2 2 2 2 1 1 1 1 1 1 0 -0 -0 -0 1 1 0 -2 -4 -5 -5 -4 -4 -6 -8 -8 -1 0 -1 -3 -7 -9 -8 -1 -2 -3 -2 3 4 -0 -10 -24 -25 -11 7 17 13 8 5 4 3 1 -1 -2 -2 -0 2 4 4 3 2 0 -1 -1 -1 -1 2 5 8 10 8 5 2 1 4 6 6 4 -2 -6 -9
0 1 1 2 2 2 2 2 2 1 0 0 1 1 1 0 0 1 2 2 1 -1 -3 -6 -6 -6 -6 -4 -5 -5 -4 -1 -1 -3 -4 -7 -9 -9 -4 -2 -2 -3 -1 2 4 1 -6 -14 -13 -6 5 11 11 8 4 2 1 -0 -1 -2 -1 1 4 5 4 3 1 -1 -2 -2 -2 0 4 7 10 9 6 3 1 4 6 8 7 3 -2 -5
-0 0 1 1 2 2 2 2 1 1 0 0 1 1 0 0 1 1 1 0 -1 -3 -4 -5 -5 -5 -6 -6 -7 -6 -2 2 1 -1 -4 -6 -8 -9 -6 -2 -2 -4 -5 -3 -1 1 -1 -3 -4 -5 -6 3 10 12 8 3 0 -1 -0 -1 -1 -0 2 4 4 3 1 -0 -2 -3 -4 -2 0 3 7 8 7 5 2 2 4 7 8 6 3 -0
-1 -0 1 2 2 2 2 2 2 1 1 1 1 0 0 0 0 0 0 -1 -2 -3 -4 -4 -3 -3 -3 -5 -7 -8 -5 1 3 2 -1 -3 -6 -9 -8 -4 -2 -3 -7 -7 -4 -2 -4 -3 0 2 -3 -3 3 11 13 7 2 -1 -1 -0 -0 0 2 4 5 4 2 0 -1 -3 -4 -4 -2 0 3 4 4 3 1 0 2 4 7 7 6 4
-0 0 1 2 2 2 1 2 2 2 2 1 1 1 0 -0 -0 -1 -1 -1 -2 -2 -3 -3 -3 -2 -2 -3 -4 -6 -6 -2 1 3 1 -1 -4 -6 -8 -5 -2 -2 -5 -9 -8 -6 -5 -6 -2 3 4 -0 -0 3 9 9 6 2 0 -0 0 1 3 5 6 6 4 2 -0 -2 -4 -4 -3 -2 0 1 1 1 -0 -1 -1 0 3 5 6 5
0 1 2 3 2 2 1 2 3 3 3 2 1 1 1 -0 -1 -2 -2 -2 -2 -2 -3 -2 -2 -1 -1 -1 -2 -3 -4 -2 -0 2 2 -0 -2 -4 -6 -5 -2 0 -0 -6 -9 -9 -8 -9 -7 -3 4 6 5 3 2 4 5 4 2 0 -0 0 2 5 7 8 7 4 1 -1 -3 -4 -4 -4 -2 -1 -0 -0 -1 -2 -3 -3 -2 -0 1 1
0 1 2 3 2 2 1 2 3 3 3 2 1 1 1 -0 -1 -2 -2 -2 -2 -2 -2 -2 -1 0 2 2 1 0 -1 -2 -1 -0 1 0 -1 -2 -4 -5 -3 0 3 -1 -4 -7 -8 -10 -11 -10 -6 1 7 10 8 5 3 2 1 1 1 1 1 3 6 8 9 7 4 1 -1 -3 -4 -4 -4 -3 -2 -2 -2 -4 -5 -6 -6 -6 -5 -5
0 1 2 2 2 2 2 2 3 3 3 2 1 1 1 -0 -1 -2 -2 -2 -1 -1 -0 -1 -0 1 2 4 4 2 0 -1 -1 -1 -1 -1 -1 -2 -3 -4 -4 -2 1 1 -0 -2 -5 -7 -7 -8 -8 -7 -2 5 11 10 7 3 -0 -1 0 1 2 1 2 5 7 7 5 3 2 0 -1 -2 -2 -3 -3 -4 -5 -6 -6 -8 -9 -9 -10 -10
1 1 1 2 2 2 2 2 3 3 3 2 2 1 1 -0 -2 -3 -3 -2 -1 0 1 0 -0 0 2 4 4 3 1 -0 -1 -1 -1 -1 -1 -1 -2 -3 -4 -4 -2 -0 1 0 -1 -4 -5 -4 -2 -4 -3 -1 5 8 8 6 1 -3 -3 -1 0 -1 -1 0 3 4 4 3 2 2 1 0 -0 -1 -3 -5 -6 -7 -8 -9 -10 -11 -12 -12
1 1 1 2 3 2 2 2 3 3 3 2 2 1 1 -1 -2 -3 -3 -1 0 2 2 0 -1 -1 0 3 5 4 3 1 0 0 0 -0 -1 -1 -1 -1 -2 -3 -3 -1 0 2 2 -1 -4 -5 -3 -3 -2 -0 5 9 10 8 4 -1 -3 -3 -1 -2 -4 -4 -3 0 2 2 2 2 2 2 1 -0 -2 -4 -6 -8 -10 -11 -12 -13 -12 -12
1 1 1 2 3 2 2 2 3 3 3 2 2 1 1 -0 -2 -3 -2 -0 2 3 2 1 -1 -2 -1 2 5 7 6 4 2 1 0 -0 -0 -0 -0 -0 -1 -2 -2 -3 -1 1 4 2 -1 -4 -5 -4 -4 -2 1 8 12 12 8 2 -2 -4 -3 -1 -3 -6 -6 -3 -1 1 2 2 2 2 2 -0 -1 -2 -3 -6 -8 -10 -12 -14 -14 -14
1 2 2 2 2 2 2 2 3 3 3 2 2 1 1 -0 -1 -2 -2 -1 1 2 2 0 -1 -2 -2 -0 3 5 7 6 4 2 1 -0 -0 -1 -0 -0 -1 -1 -2 -4 -5 -3 1 4 3 0 -4 -4 -4 -3 -1 4 9 11 10 6 1 -4 -7 -3 -3 -4 -5 -4 -2 -1 0 1 2 2 2 0 -1 -1 -1 -2 -4 -7 -9 -11 -12 -13
2 2 3 2 2 2 2 2 3 3 3 2 2 2 2 1 -1 -2 -2 -2 -1 0 0 -1 -2 -3 -3 -1 -0 1 3 5 5 4 3 1 0 -1 -1 -2 -2 -1 -1 -2 -4 -6 -6 -2 2 4 2 -1 -3 -4 -2 2 6 9 10 8 5 0 -3 -3 -3 -3 -4 -3 -2 -2 -1 -1 0 2 3 2 1 0 -0 -0 -1 -2 -5 -7 -9 -11
2 2 3 3 2 2 2 2 2 3 3 2 2 2 3 2 0 -1 -2 -2 -2 -1 -0 -1 -2 -3 -4 -2 -1 -1 -2 1 3 4 4 3 2 1 -1 -1 -2 -2 -1 -1 -1 -2 -4 -6 -5 -3 1 1 1 -0 -1 0 3 6 9 9 7 4 1 -0 -2 -4 -4 -4 -3 -2 -2 -2 -1 0 2 3 3 2 1 0 -0 -1 -2 -5 -7 -9
1 2 2 2 2 2 1 2 2 3 2 2 2 2 2 2 1 -0 -1 -1 -1 -1 -0 -0 -1 -2 -3 -3 -3 -4 -5 -4 -1 2 3 3 2 1 1 -0 -1 -1 -2 -1 -0 0 1 -2 -5 -7 -7 -4 -1 2 4 2 2 3 6 8 8 6 4 3 0 -2 -5 -4 -4 -3 -3 -3 -2 -1 1 3 3 3 2 1 -0 -1 -2 -4 -6 -7
1 2 2 2 2 2 1 2 2 2 1 1 2 2 2 1 0 -0 -1 -0 -0 -0 -1 -1 -1 -1 -2 -2 -2 -4 -6 -7 -5 -2 0 1 1 0 0 -0 -1 -1 -1 -0 0 1 3 2 0 -3 -7 -9 -8 -4 2 4 4 4 4 7 8 7 6 5 2 -1 -4 -5 -5 -4 -4 -3 -2 -0 2 2 3 2 2 1 0 -1 -2 -4 -5 -6
1 2 2 2 2 1 1 2 2 2 1 1 1 1 1 1 0 -0 -1 -0 -0 -0 -1 -1 -1 -2 -2 -1 -0 -1 -2 -4 -4 -3 -2 -2 -2 -2 -1 -1 -1 -1 -1 0 2 4 5 7 6 4 -1 -6 -9 -9 -4 2 4 5 5 6 7 8 8 7 5 1 -3 -5 -6 -5 -4 -3 -2 -0 2 2 3 3 3 2 0 -1 -2 -3 -4 -5
1 1 1 1 1 1 1 2 3 2 1 1 1 1 1 1 1 0 -1 -1 -1 -1 -1 -1 -2 -2 -2 -1 0 1 0 -1 -1 -1 -1 -2 -4 -4 -4 -3 -3 -3 -3 -2 0 3 5 8 11 11 7 -1 -7 -10 -9 -3 2 4 5 6 7 8 8 8 7 4 -1 -4 -6 -6 -5 -4 -2 -1 0 1 3 4 4 3 1 -0 -1 -2 -3 -4
0 0 1 1 1 1 2 2 2 2 1 1 1 1 1 1 1 1 0 -0 -1 -1 -1 -1 -2 -3 -3 -2 -1 0 0 -0 -0 -0 -0 -1 -3 -4 -5 -5 -5 -6 -7 -7 -5 -2 0 4 9 14 14 7 -1 -9 -11 -8 -3 1 4 6 7 8 8 9 8 7 2 -2 -5 -7 -6 -5 -3 -1 -0 1 3 4 5 4 2 0 -1 -1 -2 -3
-0 0 1 1 1 1 2 2 2 1 1 1 0 0 0 1 1 1 1 0 -0 -1 -2 -2 -2 -2 -3 -3 -2 -0 1 1 0 -0 -0 -1 -2 -4 -5 -5 -5 -7 -10 -12 -11 -8 -4 -2 2 9 16 16 8 -2 -8 -9 -8 -4 -0 4 6 7 7 8 9 9 6 1 -3 -6 -7 -6 -4 -2 -0 1 3 5 6 5 3 1 -0 -1 -2 -3
Height
2943 2943 2943 2943 2942 2941 2941 2941 2939 2937 2936 2936 2935 2933 2932 2931 2930 2928 2927 2926 2923 2921 2919 2917 2916 2914 2912 2911 2910 2908 2906 2904 2902 2900 2898 2896 2894 2892 2889 2887 2885 2883 2881 2879 2877 2876 2874 2872 2871 2869 2868 2866 2865 2863 2862 2860 2859 2858 2857 2857 2857 2857 2855 2854 2854 2853 2852 2851 2849 2849 2848 2847 2846 2846 2846 2845 2845 2844 2844 2844 2844 2845 2846 2848 2849 2851
2940 2940 2940 2939 2939 2938 2937 2937 2936 2935 2933 2932 2931 2930 2929 2928 2927 2925 2924 2922 2920 2918 2916 2914 2912 2911 2909 2908 2906 2905 2902 2900 2898 2896 2894 2892 2889 2887 2885 2883 2881 2879 2877 2875 2873 2871 2870 2868 2867 2865 2863 2862 2860 2859 2857 2856 2855 2854 2854 2854 2854 2853 2851 2850 2848 2847 2845 2844 2844 2844 2843 2842 2842 2841 2841 2840 2840 2839 2839 2839 2839 2840 2841 2843 2844 2845
2937 2937 2936 2936 2935 2934 2934 2934 2933 2932 2930 2929 2928 2927 2926 2925 2923 2922 2921 2919 2917 2915 2913 2911 2909 2907 2905 2904 2903 2901 2899 2897 2894 2892 2890 2887 2885 2883 2881 2879 2877 2874 2872 2871 2869 2867 2866 2864 2863 2861 2859 2857 2856 2854 2852 2851 2849 2849 2848 2849 2849 2847 2846 2844 2843 2841 2840 2839 2839 2839 2839 2838 2837 2836 2836 2835 2835 2834 2834 2834 2835 2836 2837 2838 2839 2840
2934 2933 2933 2932 2932 2931 2931 2930 2930 2928 2927 2926 2925 2924 2923 2922 2920 2919 2917 2915 2913 2911 2909 2907 2906 2903 2902 2900 2898 2897 2895 2892 2890 2888 2886 2883 2881 2879 2877 2875 2873 2871 2869 2867 2865 2863 2862 2860 2858 2857 2855 2852 2851 2849 2847 2846 2844 2843 2842 2842 2842 2841 2839 2839 2838 2837 2836 2836 2835 2834 2833 2833 2832 2831 2830 2830 2829 2829 2829 2830 2830 2831 2832 2833 2834 2834
2931 2930 2930 2929 2929 2928 2928 2927 2927 2925 2924 2923 2922 2921 2920 2918 2917 2915 2913 2912 2910 2907 2906 2904 2902 2900 2898 2896 2894 2892 2890 2888 2886 2884 2882 2880 2878 2876 2873 2871 2869 2867 2865 2863 2861 2860 2858 2856 2854 2852 2850 2848 2846 2844 2842 2841 2839 2838 2838 2837 2837 2836 2835 2834 2832 2832 2832 2831 2830 2829 2828 2828 2827 2826 2825 2824 2824 2824 2824 2824 2825 2825 2826 2827 2827 2829
2928 2927 2927 2926 2926 2925 2925 2924 2923 2922 2921 2920 2919 2918 2917 2915 2913 2911 2910 2908 2906 2904 2902 2901 2899 2897 2895 2893 2891 2888 2887 2884 2882 2881 2879 2877 2875 2872 2870 2867 2865 2863 2861 2859 2857 2855 2853 2851 2849 2847 2845 2843 2841 2839 2838 2836 2835 2835 2835 2834 2833 2832 2831 2830 2828 2828 2827 2825 2824 2823 2823 2822 2821 2821 2820 2819 2819 2820 2820 2819 2819 2820 2821 2821 2822 2823
2924 2924 2924 2923 2922 2922 2922 2921 2921 2920 2918 2916 2915 2914 2913 2911 2909 2907 2906 2904 2903 2901 2899 2898 2897 2895 2892 2890 2887 2885 2882 2880 2878 2877 2875 2873 2871 2868 2866 2863 2861 2859 2857 2855 2853 2851 2849 2847 2844 2842 2840 2838 2837 2835 2833 2832 2831 2832 2832 2832 2830 2828 2827 2826 2824 2822 2820 2819 2818 2817 2817 2816 2815 2815 2815 2815 2815 2815 2815 2815 2815 2815 2816 2816 2817 2818
2921 2921 2921 2920 2919 2919 2918 2918 2917 2917 2915 2913 2912 2910 2909 2907 2906 2904 2903 2901 2900 2899 2897 2895 2893 2891 2889 2886 2883 2881 2878 2876 2873 2872 2870 2868 2866 2864 2862 2859 2857 2854 2852 2850 2848 2846 2844 2842 2840 2838 2836 2834 2832 2830 2828 2827 2826 2826 2826 2825 2824 2823 2821 2819 2817 2816 2815 2814 2813 2812 2812 2811 2811 2811 2811 2811 2811 2811 2811 2810 2810 2810 2811 2811 2812 2812
2917 2917 2918 2917 2917 2916 2915 2915 2915 2914 2912 2910 2908 2907 2905 2903 2902 2901 2900 2899 2898 2896 2894 2891 2888 2886 2884 2882 2879 2877 2874 2871 2869 2867 2866 2863 2861 2859 2857 2854 2852 2850 2848 2846 2844 2842 2840 2838 2836 2833 2831 2829 2828 2826 2824 2823 2821 2820 2819 2818 2817 2816 2815 2813 2812 2811 2810 2809 2808 2807 2807 2807 2807 2807 2806 2806 2806 2806 2805 2805 2805 2806 2806 2807 2807 2808
2914 2914 2914 2914 2914 2913 2912 2912 2912 2912 2910 2908 2905 2903 2902 2900 2898 2897 2896 2895 2894 2893 2890 2887 2884 2881 2878 2877 2875 2873 2870 2868 2866 2865 2863 2860 2857 2855 2852 2850 2847 2846 2844 2842 2840 2838 2836 2833 2832 2829 2827 2825 2824 2822 2821 2819 2817 2816 2814 2813 2812 2811 2809 2808 2807 2806 2805 2804 2803 2803 2802 2802 2802 2801 2801 2801 2801 2801 2801 2801 2802 2802 2803 2803 2804 2806
2911 2912 2911 2911 2911 2911 2910 2909 2909 2908 2907 2905 2902 2900 2899 2897 2895 2893 2891 2890 2889 2888 2885 2883 2880 2878 2875 2873 2871 2870 2867 2865 2863 2861 2859 2857 2854 2851 2848 2846 2843 2842 2839 2837 2835 2833 2831 2829 2827 2825 2823 2822 2820 2818 2817 2815 2814 2812 2810 2809 2807 2806 2805 2804 2803 2802 2801 2800 2799 2798 2798 2797 2797 2797 2798 2797 2797 2798 2798 2798 2798 2799 2800 2801 2802 2803
2908 2908 2908 2908 2908 2907 2907 2907 2906 2905 2903 2901 2899 2897 2895 2894 2893 2891 2888 2886 2885 2883 2881 2879 2877 2876 2874 2871 2868 2866 2864 2862 2859 2857 2855 2852 2850 2847 2844 2841 2839 2837 2835 2833 2831 2829 2827 2825 2823 2821 2819 2817 2816 2815 2813 2812 2810 2808 2807 2805 2804 2802 2801 2800 2799 2798 2797 2796 2795 2794 2794 2794 2794 2794 2794 2794 2794 2795 2795 2795 2795 2796 2797 2798 2799 2800
2906 2906 2905 2905 2905 2905 2905 2904 2903 2901 2900 2898 2896 2894 2893 2892 2891 2889 2886 2883 2882 2880 2877 2875 2874 2873 2872 2870 2867 2864 2860 2857 2855 2852 2850 2848 2845 2842 2839 2837 2835 2833 2831 2828 2826 2824 2822 2820 2818 2817 2815 2813 2812 2811 2810 2808 2807 2805 2803 2802 2800 2799 2798 2797 2795 2794 2793 2792 2791 2790 2790 2791 2791 2791 2791 2791 2791 2792 2792 2792 2792 2793 2794 2795 2796 2797
2903 2902 2902 2902 2902 2902 2902 2901 2900 2898 2896 2895 2893 2892 2891 2890 2888 2886 2883 2881 2879 2877 2875 2873 2871 2870 2869 2867 2865 2861 2857 2853 2850 2848 2846 2844 2842 2840 2836 2833 2831 2830 2827 2825 2822 2820 2819 2817 2814 2812 2811 2810 2808 2807 2806 2804 2803 2802 2800 2798 2797 2796 2794 2793 2792 2791 2790 2789 2789 2790 2790 2789 2789 2788 2788 2787 2788 2788 2789 2789 2790 2790 2791 2792 2794 2794
2900 2900 2899 2899 2899 2899 2899 2898 2896 2894 2893 2892 2891 2890 2888 2887 2885 2883 2881 2878 2876 2874 2872 2870 2868 2867 2866 2865 2862 2858 2854 2850 2847 2845 2842 2841 2840 2837 2834 2830 2828 2826 2825 2822 2819 2817 2816 2813 2811 2808 2807 2805 2804 2803 2802 2800 2799 2797 2796 2795 2794 2792 2791 2790 2789 2788 2787 2786 2787 2788 2788 2786 2785 2785 2784 2785 2785 2785 2786 2786 2787 2787 2788 2790 2791 2792
2897 2897 2896 2896 2897 2897 2897 2895 2893 2892 2890 2889 2888 2887 2886 2884 2883 2881 2879 2876 2874 2872 2870 2867 2865 2862 2862 2862 2860 2857 2853 2848 2845 2842 2839 2837 2837 2835 2832 2828 2825 2823 2822 2819 2817 2814 2812 2810 2808 2806 2803 2802 2801 2799 2798 2797 2795 2794 2793 2792 2790 2789 2788 2787 2786 2784 2784 2786 2786 2785 2783 2782 2782 2782 2782 2782 2782 2782 2783 2783 2783 2784 2785 2786 2787 2788
2894 2894 2894 2894 2894 2894 2893 2892 2890 2889 2888 2887 2886 2885 2884 2882 2880 2878 2876 2874 2872 2870 2868 2866 2862 2859 2857 2856 2857 2856 2852 2847 2842 2839 2837 2834 2833 2832 2830 2826 2822 2820 2818 2817 2814 2812 2810 2807 2805 2803 2801 2799 2798 2797 2795 2794 2792 2791 2790 2788 2787 2786 2785 2784 2782 2781 2780 2782 2782 2780 2779 2778 2779 2779 2778 2778 2779 2779 2780 2780 2781 2782 2782 2782 2783 2784
2892 2892 2892 2891 2891 2890 2890 2889 2888 2887 2886 2885 2884 2882 2881 2880 2878 2876 2874 2872 2870 2868 2866 2863 2861 2858 2855 2852 2852 2852 2850 2845 2840 2837 2834 2831 2830 2829 2828 2824 2820 2817 2815 2813 2812 2810 2807 2805 2802 2800 2798 2797 2795 2794 2792 2791 2790 2788 2787 2786 2784 2783 2782 2781 2779 2778 2777 2776 2776 2775 2775 2775 2776 2775 2775 2775 2776 2777 2777 2777 2778 2779 2779 2779 2780 2781
2889 2889 2889 2888 2887 2887 2887 2886 2886 2885 2884 2882 2881 2880 2878 2877 2876 2874 2872 2870 2868 2866 2863 2861 2858 2856 2854 2851 2850 2849 2847 2843 2839 2834 2831 2828 2827 2826 2825 2822 2818 2815 2812 2811 2809 2807 2804 2802 2800 2798 2796 2795 2793 2792 2790 2788 2787 2785 2784 2782 2781 2780 2779 2777 2776 2775 2774 2773 2772 2772 2772 2772 2772 2772 2772 2773 2773 2774 2775 2775 2775 2776 2777 2777 2777 2778
2886 2886 2886 2886 2885 2884 2884 2884 2884 2883 2882 2880 2879 2877 2876 2875 2874 2872 2870 2868 2866 2864 2862 2859 2856 2854 2852 2850 2848 2847 2845 2841 2837 2832 2829 2826 2824 2823 2822 2819 2815 2812 2809 2807 2806 2804 2801 2799 2797 2795 2794 2792 2790 2789 2787 2786 2784 2782 2781 2780 2778 2777 2776 2775 2774 2772 2771 2770 2770 2770 2769 2769 2769 2770 2770 2770 2771 2771 2772 2772 2773 2773 2774 2775 2775 2775
2883 2883 2883 2883 2882 2882 2881 2882 2882 2882 2880 2878 2876 2875 2874 2872 2871 2869 2867 2866 2863 2861 2859 2857 2854 2852 2850 2848 2846 2844 2842 2839 2835 2830 2827 2824 2822 2821 2820 2816 2812 2809 2807 2805 2803 2801 2799 2797 2794 2793 2791 2789 2788 2786 2785 2783 2781 2780 2778 2777 2775 2774 2773 2772 2771 2770 2769 2768 2767 2767 2767 2767 2767 2767 2767 2768 2768 2769 2770 2770 2771 2771 2772 2772 2773 2774
2880 2880 2881 2882 2881 2880 2879 2879 2880 2879 2878 2876 2874 2872 2871 2870 2868 2866 2864 2863 2861 2859 2857 2855 2853 2851 2849 2846 2844 2842 2840 2837 2833 2829 2824 2821 2819 2818 2817 2814 2810 2807 2805 2803 2801 2799 2797 2795 2792 2791 2789 2787 2786 2784 2782 2780 2778 2777 2775 2774 2772 2771 2770 2769 2768 2767 2767 2766 2765 2764 2764 2764 2764 2765 2766 2766 2766 2767 2767 2768 2768 2769 2770 2771 2772 2772
2877 2877 2878 2879 2879 2878 2877 2877 2877 2877 2876 2874 2872 2870 2869 2867 2865 2864 2862 2861 2859 2857 2855 2853 2851 2849 2847 2845 2843 2841 2839 2836 2832 2827 2823 2819 2816 2816 2815 2812 2808 2805 2803 2801 2799 2797 2795 2793 2791 2789 2787 2785 2784 2782 2780 2778 2776 2774 2773 2771 2770 2769 2767 2767 2766 2765 2764 2763 2763 2762 2762 2762 2762 2763 2763 2764 2764 2765 2765 2766 2767 2768 2769 2770 2770 2771
2875 2875 2876 2877 2877 2876 2876 2875 2875 2874 2873 2872 2870 2868 2867 2865 2863 2862 2860 2858 2857 2854 2852 2850 2848 2846 2845 2843 2841 2839 2837 2834 2830 2826 2821 2817 2815 2813 2812 2809 2806 2803 2801 2800 2797 2795 2793 2792 2790 2787 2785 2783 2782 2779 2777 2775 2773 2772 2770 2769 2767 2766 2765 2764 2763 2763 2762 2761 2761 2760 2760 2760 2760 2760 2761 2761 2762 2762 2763 2764 2765 2766 2767 2768 2768 2769
2873 2873 2874 2874 2874 2874 2873 2873 2872 2871 2870 2869 2867 2866 2864 2862 2861 2859 2858 2856 2855 2852 2850 2848 2846 2844 2842 2841 2839 2837 2835 2833 2829 2824 2820 2816 2813 2812 2810 2808 2804 2801 2799 2797 2796 2794 2791 2789 2788 2786 2784 2782 2779 2777 2775 2773 2772 2770 2768 2767 2765 2764 2762 2762 2761 2761 2760 2759 2759 2758 2757 2757 2757 2757 2758 2759 2760 2761 2761 2762 2763 2765 2766 2767 2767 2768
2871 2871 2872 2872 2872 2872 2871 2870 2870 2869 2868 2867 2865 2863 2862 2860 2858 2857 2856 2855 2853 2851 2848 2846 2843 2842 2840 2839 2837 2835 2833 2831 2827 2823 2818 2814 2811 2809 2808 2806 2803 2799 2797 2795 2793 2792 2789 2787 2785 2784 2782 2780 2777 2776 2773 2772 2770 2768 2766 2764 2763 2762 2760 2759 2759 2758 2757 2757 2756 2755 2755 2754 2754 2755 2755 2757 2757 2758 2759 2760 2762 2763 2765 2766 2766 2767
2869 2869 2870 2870 2870 2869 2869 2868 2868 2867 2866 2865 2863 2862 2860 2858 2856 2855 2854 2853 2851 2849 2846 2843 2841 2839 2838 2837 2835 2833 2831 2828 2825 2821 2817 2813 2810 2807 2806 2804 2801 2798 2795 2793 2791 2789 2787 2785 2783 2782 2780 2777 2776 2773 2772 2770 2768 2766 2764 2762 2761 2759 2758 2757 2757 2756 2755 2755 2754 2753 2752 2752 2752 2752 2753 2754 2755 2756 2757 2759 2761 2762 2763 2764 2765 2765
2867 2867 2867 2867 2867 2867 2867 2867 2866 2865 2864 2863 2862 2860 2858 2856 2855 2853 2852 2851 2849 2847 2844 2842 2840 2837 2835 2834 2832 2831 2829 2826 2822 2818 2815 2812 2808 2806 2804 2802 2799 2796 2793 2791 2789 2787 2786 2783 2781 2779 2777 2775 2773 2771 2769 2767 2766 2764 2762 2760 2759 2757 2756 2755 2755 2754 2753 2752 2752 2751 2750 2750 2749 2750 2751 2752 2753 2755 2756 2757 2759 2761 2762 2763 2763 2763
2865 2865 2865 2865 2865 2865 2865 2864 2864 2863 2862 2861 2860 2858 2857 2855 2853 2852 2850 2849 2847 2844 2842 2840 2838 2836 2833 2831 2830 2828 2827 2824 2821 2817 2813 2810 2807 2804 2802 2800 2797 2795 2792 2789 2786 2785 2784 2782 2780 2777 2775 2773 2771 2769 2767 2765 2763 2762 2760 2759 2757 2756 2755 2753 2753 2752 2751 2750 2749 2748 2747 2747 2747 2747 2748 2749 2751 2753 2754 2756 2757 2759 2760 2761 2762 2762
2862 2862 2862 2862 2862 2862 2862 2861 2861 2860 2860 2859 2857 2856 2855 2853 2852 2850 2848 2847 2845 2842 2840 2838 2837 2834 2832 2829 2827 2825 2824 2822 2819 2815 2811 2808 2805 2803 2801 2798 2796 2794 2791 2787 2784 2782 2781 2780 2778 2776 2773 2771 2769 2767 2765 2763 2761 2760 2758 2757 2755 2754 2753 2752 2751 2750 2750 2749 2747 2747 2746 2745 2745 2745 2746 2747 2749 2751 2752 2754 2756 2757 2758 2759 2760 2761
2859 2860 2860 2860 2860 2860 2859 2859 2859 2858 2857 2857 2855 2854 2853 2851 2850 2848 2847 2845 2843 2841 2839 2837 2834 2832 2830 2827 2824 2822 2820 2819 2817 2814 2810 2807 2804 2802 2799 2797 2794 2792 2790 2786 2782 2779 2776 2776 2776 2775 2772 2770 2767 2765 2763 2761 2759 2757 2756 2754 2753 2752 2752 2751 2750 2749 2748 2747 2746 2745 2744 2743 2742 2742 2743 2745 2746 2748 2750 2752 2754 2755 2757 2757 2758 2760
2857 2857 2857 2857 2857 2857 2857 2857 2856 2856 2855 2854 2853 2852 2851 2849 2848 2846 2845 2843 2841 2839 2837 2834 2832 2830 2828 2826 2823 2820 2818 2817 2815 2812 2808 2805 2802 2800 2798 2795 2793 2791 2789 2786 2782 2779 2774 2772 2771 2771 2770 2768 2766 2763 2762 2759 2757 2756 2754 2752 2752 2751 2750 2749 2748 2747 2747 2746 2745 2744 2743 2742 2741 2741 2741 2742 2744 2745 2748 2750 2752 2753 2755 2756 2757 2759
2854 2854 2854 2854 2855 2855 2854 2854 2854 2853 2852 2852 2851 2849 2848 2847 2846 2844 2843 2841 2839 2837 2834 2832 2830 2828 2826 2824 2822 2820 2817 2815 2813 2810 2807 2804 2801 2799 2797 2794 2792 2789 2787 2785 2782 2779 2775 2771 2769 2768 2767 2766 2764 2762 2760 2758 2756 2754 2752 2751 2750 2749 2748 2748 2747 2746 2746 2745 2744 2743 2742 2741 2740 2740 2740 2740 2742 2743 2745 2747 2749 2751 2753 2754 2756 2757
2851 2851 2851 2852 2852 2852 2852 2851 2851 2850 2850 2849 2848 2847 2846 2845 2843 2842 2841 2839 2837 2835 2832 2830 2828 2825 2823 2821 2819 2817 2816 2814 2812 2809 2806 2803 2800 2797 2795 2793 2791 2788 2785 2783 2780 2778 2775 2772 2769 2766 2764 2763 2762 2761 2759 2756 2754 2752 2751 2750 2748 2747 2747 2746 2746 2745 2744 2744 2743 2742 2741 2740 2739 2739 2738 2739 2740 2742 2743 2745 2746 2748 2750 2752 2754 2755
2848 2848 2848 2849 2849 2849 2849 2848 2848 2847 2847 2846 2845 2844 2843 2842 2841 2840 2838 2836 2834 2832 2831 2828 2826 2824 2822 2819 2817 2815 2814 2813 2811 2808 2805 2802 2799 2796 2794 2792 2789 2787 2783 2781 2778 2776 2773 2771 2768 2766 2763 2761 2760 2760 2758 2756 2753 2752 2750 2748 2747 2746 2745 2744 2744 2743 2743 2743 2742 2742 2741 2740 2739 2738 2737 2738 2739 2740 2742 2742 2744 2745 2747 2749 2751 2752
2845 2846 2846 2846 2846 2846 2846 2846 2845 2845 2844 2843 2843 2842 2841 2840 2838 2837 2836 2834 2832 2830 2829 2827 2825 2823 2821 2818 2815 2813 2812 2811 2809 2807 2804 2802 2798 2796 2793 2791 2788 2786 2782 2780 2777 2774 2772 2769 2767 2765 2762 2760 2758 2757 2757 2755 2753 2751 2749 2747 2746 2745 2744 2743 2742 2742 2742 2742 2742 2741 2741 2740 2739 2738 2737 2737 2738 2739 2740 2741 2742 2743 2744 2746 2747 2750
2843 2843 2843 2843 2843 2843 2843 2843 2843 2842 2842 2841 2840 2839 2838 2837 2836 2835 2833 2832 2830 2828 2827 2825 2824 2822 2820 2817 2815 2812 2810 2809 2807 2806 2803 2801 2798 2795 2792 2790 2787 2785 2782 2779 2776 2773 2770 2767 2765 2763 2762 2759 2757 2755 2754 2753 2752 2750 2748 2747 2745 2744 2743 2742 2741 2741 2740 2741 2741 2741 2741 2740 2739 2738 2737 2737 2738 2738 2740 2741 2742 2742 2743 2744 2745 2747
2840 2840 2841 2841 2841 2840 2840 2840 2840 2840 2839 2838 2837 2837 2836 2834 2833 2832 2831 2829 2828 2826 2825 2824 2822 2821 2819 2817 2815 2812 2810 2808 2806 2804 2802 2799 2797 2794 2791 2788 2786 2784 2782 2778 2775 2772 2769 2767 2764 2762 2760 2758 2757 2755 2754 2752 2751 2749 2747 2746 2745 2743 2742 2741 2740 2739 2739 2739 2740 2740 2740 2740 2739 2739 2738 2738 2738 2739 2740 2740 2741 2742 2743 2744 2745 2746
2837 2837 2838 2838 2838 2838 2837 2837 2837 2837 2837 2836 2835 2834 2833 2832 2831 2830 2828 2827 2826 2824 2823 2822 2821 2819 2818 2816 2814 2812 2809 2807 2804 2802 2800 2798 2795 2793 2790 2787 2785 2783 2780 2778 2775 2772 2769 2766 2763 2761 2758 2756 2754 2753 2753 2752 2750 2748 2746 2745 2744 2743 2742 2740 2739 2738 2737 2737 2738 2738 2739 2739 2739 2739 2739 2739 2739 2739 2740 2741 2741 2742 2743 2744 2745 2746
2835 2835 2835 2835 2835 2835 2835 2835 2835 2834 2834 2833 2832 2832 2831 2829 2828 2827 2826 2825 2824 2822 2821 2820 2818 2817 2816 2814 2812 2810 2807 2805 2803 2801 2798 2796 2794 2792 2789 2786 2783 2781 2779 2777 2774 2771 2768 2766 2763 2760 2758 2756 2753 2752 2751 2751 2750 2748 2746 2744 2743 2743 2742 2740 2739 2737 2737 2737 2737 2737 2737 2738 2738 2739 2739 2739 2740 2740 2741 2741 2742 2743 2743 2744 2745 2746
2832 2832 2832 2832 2832 2832 2832 2832 2832 2832 2831 2831 2830 2829 2828 2827 2826 2824 2824 2823 2822 2821 2819 2818 2816 2815 2814 2813 2811 2809 2806 2804 2801 2799 2797 2795 2793 2790 2788 2785 2782 2780 2777 2775 2773 2770 2767 2765 2762 2759 2757 2755 2752 2751 2750 2750 2749 2747 2746 2744 2742 2742 2742 2741 2739 2738 2737 2736 2736 2736 2737 2737 2737 2738 2739 2740 2741 2741 2742 2742 2743 2744 2744 2745 2746 2747
2829 2829 2830 2830 2830 2829 2829 2829 2829 2829 2828 2828 2827 2826 2825 2824 2823 2822 2821 2821 2820 2818 2817 2816 2814 2813 2812 2811 2810 2808 2806 2803 2800 2798 2796 2793 2791 2789 2787 2784 2782 2779 2776 2773 2771 2769 2766 2764 2761 2759 2756 2754 2752 2750 2748 2748 2748 2747 2746 2743 2742 2741 2741 2741 2740 2738 2737 2737 2736 2736 2736 2736 2737 2737 2738 2739 2741 2742 2743 2744 2745 2745 2746 2747 2747 2748
2827 2827 2827 2827 2827 2827 2827 2827 2826 2826 2826 2825 2824 2823 2822 2821 2820 2819 2818 2818 2817 2816 2814 2813 2811 2810 2809 2808 2807 2807 2805 2802 2799 2797 2794 2792 2790 2788 2786 2783 2781 2778 2775 2772 2769 2767 2765 2762 2760 2758 2756 2753 2751 2749 2747 2747 2746 2746 2745 2743 2742 2740 2740 2740 2740 2739 2738 2737 2736 2736 2736 2736 2736 2737 2737 2739 2741 2742 2743 2744 2745 2746 2747 2747 2748 2749
2824 2825 2824 2824 2824 2824 2824 2824 2823 2823 2823 2822 2822 2821 2820 2819 2818 2817 2816 2815 2814 2813 2812 2810 2809 2807 2806 2805 2804 2803 2802 2801 2798 2796 2793 2791 2788 2786 2784 2782 2780 2777 2774 2771 2768 2765 2762 2761 2759 2757 2755 2752 2750 2748 2747 2745 2744 2744 2743 2742 2741 2740 2739 2739 2739 2739 2738 2737 2736 2736 2736 2735 2736 2736 2737 2738 2740 2742 2743 2744 2745 2746 2747 2748 2749 2750
2822 2822 2822 2822 2822 2821 2821 2821 2821 2821 2820 2820 2819 2818 2818 2817 2816 2814 2813 2812 2812 2810 2809 2808 2806 2805 2803 2802 2801 2800 2799 2797 2796 2794 2792 2790 2787 2785 2783 2781 2778 2776 2773 2770 2767 2764 2761 2759 2757 2755 2754 2752 2750 2748 2746 2744 2742 2742 2742 2741 2740 2739 2739 2739 2738 2738 2737 2737 2736 2736 2736 2735 2735 2736 2736 2737 2739 2741 2742 2743 2744 2746 2747 2747 2749 2750
2819 2819 2819 2819 2819 2819 2818 2818 2818 2818 2817 2817 2817 2816 2815 2814 2813 2812 2811 2810 2809 2808 2807 2805 2804 2802 2801 2799 2798 2796 2795 2794 2793 2792 2790 2788 2786 2784 2782 2779 2777 2775 2772 2769 2766 2763 2760 2758 2756 2753 2752 2750 2748 2747 2746 2743 2742 2740 2740 2739 2739 2738 2738 2738 2738 2737 2737 2737 2736 2736 2736 2736 2735 2736 2736 2737 2738 2740 2741 2742 2744 2745 2746 2747 2748 2750
2817 2817 2817 2817 2817 2816 2816 2816 2815 2815 2815 2814 2814 2813 2812 2812 2811 2810 2809 2808 2807 2806 2804 2803 2802 2800 2798 2797 2795 2793 2792 2790 2789 2788 2787 2785 2783 2782 2780 2777 2775 2773 2771 2768 2765 2762 2760 2757 2755 2753 2751 2749 2747 2745 2744 2743 2741 2739 2738 2737 2737 2737 2737 2737 2737 2737 2737 2736 2736 2736 2736 2736 2736 2736 2736 2737 2737 2739 2741 2742 2743 2745 2746 2747 2748 2749
2814 2814 2814 2814 2814 2813 2813 2813 2813 2812 2812 2812 2811 2811 2810 2809 2808 2807 2806 2805 2804 2803 2802 2801 2799 2798 2796 2795 2793 2791 2789 2787 2786 2784 2783 2782 2780 2778 2777 2775 2773 2771 2769 2767 2764 2761 2758 2756 2755 2753 2751 2748 2746 2743 2742 2741 2740 2738 2737 2736 2736 2735 2735 2736 2736 2736 2736 2736 2736 2736 2736 2736 2736 2736 2736 2736 2737 2738 2740 2741 2743 2744 2746 2747 2748 2749
2812 2812 2812 2811 2811 2811 2811 2810 2810 2810 2809 2809 2808 2808 2807 2807 2806 2805 2804 2803 2802 2801 2799 2798 2797 2795 2794 2793 2791 2790 2788 2786 2784 2782 2780 2778 2777 2775 2773 2772 2770 2768 2766 2764 2762 2759 2757 2754 2753 2752 2750 2748 2745 2742 2741 2739 2738 2737 2736 2735 2734 2734 2733 2734 2734 2735 2735 2735 2735 2736 2736 2736 2736 2736 2736 2737 2737 2738 2739 2741 2742 2743 2745 2746 2747 2748
2809 2809 2809 2809 2808 2808 2808 2808 2807 2807 2807 2806 2806 2805 2805 2804 2803 2802 2802 2801 2799 2798 2797 2796 2794 2793 2792 2790 2789 2788 2786 2784 2782 2780 2778 2776 2774 2772 2770 2769 2767 2765 2763 2761 2759 2757 2754 2751 2750 2750 2750 2748 2745 2742 2739 2738 2737 2736 2735 2734 2733 2732 2732 2732 2732 2733 2733 2734 2734 2735 2735 2736 2736 2736 2736 2737 2737 2738 2739 2740 2741 2742 2744 2745 2746 2747
2807 2807 2806 2806 2806 2806 2806 2805 2805 2804 2804 2804 2803 2802 2802 2802 2801 2800 2799 2798 2797 2796 2795 2793 2792 2791 2789 2788 2787 2786 2784 2782 2780 2778 2776 2774 2772 2770 2768 2766 2764 2762 2760 2758 2756 2754 2751 2748 2746 2746 2748 2747 2745 2742 2739 2737 2735 2734 2733 2732 2732 2731 2730 2730 2730 2731 2732 2732 2733 2734 2734 2735 2735 2736 2736 2736 2737 2737 2738 2739 2740 2742 2742 2744 2745 2747